Wetterdaten: Freitag, 28.11.2008
Datum Zeit Temp. I. Temp. A. Boden 5 cm Feuchte A. Luftdruck Regen Wind
28.11.2008 00:02 21,8 C -3,1 C 1,2 C 87 % 1012 hPa 0,0 l/m 0,0 km/h (0 Bft)
28.11.2008 00:05 21,8 C -3,2 C 1,2 C 87 % 1012 hPa 0,0 l/m 0,0 km/h (0 Bft)
28.11.2008 00:08 21,8 C -3,3 C 1,2 C 87 % 1011 hPa 0,0 l/m 0,0 km/h (0 Bft)
28.11.2008 00:11 21,8 C -3,3 C 1,2 C 88 % 1011 hPa 0,0 l/m 0,0 km/h (0 Bft)
28.11.2008 00:14 21,8 C -3,3 C 1,2 C 88 % 1011 hPa 0,0 l/m 0,0 km/h (0 Bft)
28.11.2008 00:17 21,8 C -3,2 C 1,2 C 88 % 1011 hPa 0,0 l/m 0,0 km/h (0 Bft)
28.11.2008 00:20 21,8 C -3,0 C 1,2 C 88 % 1011 hPa 0,0 l/m 0,0 km/h (0 Bft)
28.11.2008 00:23 21,8 C -3,0 C 1,2 C 88 % 1011 hPa 0,0 l/m 0,1 km/h (0 Bft)
28.11.2008 00:26 21,8 C -3,0 C 1,2 C 89 % 1011 hPa 0,0 l/m 0,3 km/h (0 Bft)
28.11.2008 00:29 21,8 C -3,0 C 1,2 C 89 % 1011 hPa 0,0 l/m 0,5 km/h (0 Bft)
28.11.2008 00:32 21,8 C -3,1 C 1,2 C 88 % 1011 hPa 0,0 l/m 0,0 km/h (0 Bft)
28.11.2008 00:35 21,8 C -3,1 C 1,2 C 88 % 1011 hPa 0,0 l/m 0,0 km/h (0 Bft)
28.11.2008 00:38 21,8 C -3,3 C 1,2 C 88 % 1011 hPa 0,0 l/m 0,0 km/h (0 Bft)
28.11.2008 00:41 21,8 C -3,4 C 1,1 C 88 % 1011 hPa 0,0 l/m 1,3 km/h (1 Bft)
28.11.2008 00:44 21,8 C -3,5 C 1,2 C 88 % 1011 hPa 0,0 l/m 0,2 km/h (0 Bft)
28.11.2008 00:47 21,8 C -3,5 C 1,2 C 88 % 1011 hPa 0,0 l/m 0,1 km/h (0 Bft)
28.11.2008 00:50 21,8 C -3,6 C 1,2 C 91 % 1011 hPa 0,0 l/m 0,1 km/h (0 Bft)
28.11.2008 00:53 21,8 C -3,4 C 1,3 C 91 % 1011 hPa 0,0 l/m 0,0 km/h (0 Bft)
28.11.2008 00:56 21,8 C -3,4 C 1,2 C 90 % 1011 hPa 0,0 l/m 0,0 km/h (0 Bft)
28.11.2008 00:58 21,8 C -3,4 C 1,2 C 90 % 1011 hPa 0,0 l/m 0,0 km/h (0 Bft)
28.11.2008 01:02 21,8 C -3,4 C 1,2 C 89 % 1011 hPa 0,0 l/m 0,0 km/h (0 Bft)
28.11.2008 01:05 21,8 C -3,4 C 1,2 C 89 % 1011 hPa 0,0 l/m 0,0 km/h (0 Bft)
28.11.2008 01:08 21,8 C -3,5 C 1,2 C 89 % 1011 hPa 0,0 l/m 0,0 km/h (0 Bft)
28.11.2008 01:11 21,8 C -3,5 C 1,2 C 89 % 1011 hPa 0,0 l/m 0,0 km/h (0 Bft)
28.11.2008 01:14 21,8 C -3,5 C 1,2 C 89 % 1011 hPa 0,0 l/m 0,0 km/h (0 Bft)
28.11.2008 01:17 21,8 C -3,4 C 1,2 C 89 % 1011 hPa 0,0 l/m 0,0 km/h (0 Bft)
28.11.2008 01:20 21,8 C -3,4 C 1,1 C 89 % 1011 hPa 0,0 l/m 0,0 km/h (0 Bft)
28.11.2008 01:23 21,8 C -3,4 C 1,1 C 89 % 1011 hPa 0,0 l/m 0,0 km/h (0 Bft)
28.11.2008 01:26 21,8 C -3,4 C 1,1 C 88 % 1011 hPa 0,0 l/m 0,0 km/h (0 Bft)
28.11.2008 01:29 21,8 C -3,4 C 1,1 C 89 % 1010 hPa 0,0 l/m 0,0 km/h (0 Bft)
28.11.2008 01:32 21,8 C -3,4 C 1,1 C 89 % 1010 hPa 0,0 l/m 0,0 km/h (0 Bft)
28.11.2008 01:35 21,8 C -3,4 C 1,1 C 89 % 1010 hPa 0,0 l/m 0,0 km/h (0 Bft)
28.11.2008 01:38 21,8 C -3,4 C 1,2 C 89 % 1010 hPa 0,0 l/m 0,0 km/h (0 Bft)
28.11.2008 01:41 21,8 C -3,3 C 1,2 C 89 % 1010 hPa 0,0 l/m 0,0 km/h (0 Bft)
28.11.2008 01:44 21,8 C -3,5 C 1,2 C 89 % 1010 hPa 0,0 l/m 0,0 km/h (0 Bft)
28.11.2008 01:47 21,8 C -3,6 C 1,2 C 89 % 1011 hPa 0,0 l/m 0,8 km/h (0 Bft)
28.11.2008 01:50 21,8 C -3,7 C 1,2 C 89 % 1011 hPa 0,0 l/m 0,0 km/h (0 Bft)
28.11.2008 01:53 21,8 C -3,7 C 1,2 C 89 % 1010 hPa 0,0 l/m 0,0 km/h (0 Bft)
28.11.2008 01:56 21,8 C -3,7 C 1,2 C 89 % 1010 hPa 0,0 l/m 0,0 km/h (0 Bft)
28.11.2008 01:59 21,8 C -3,6 C 1,2 C 90 % 1010 hPa 0,0 l/m 0,0 km/h (0 Bft)
28.11.2008 02:02 21,8 C -3,6 C 1,2 C 90 % 1010 hPa 0,0 l/m 0,0 km/h (0 Bft)
28.11.2008 02:05 21,8 C -3,6 C 1,2 C 90 % 1010 hPa 0,0 l/m 0,0 km/h (0 Bft)
28.11.2008 02:08 21,8 C -3,7 C 1,2 C 90 % 1010 hPa 0,0 l/m 0,0 km/h (0 Bft)
28.11.2008 02:11 21,8 C -3,7 C 1,2 C 90 % 1010 hPa 0,0 l/m 0,0 km/h (0 Bft)
28.11.2008 02:14 21,8 C -3,8 C 1,1 C 89 % 1010 hPa 0,0 l/m 0,0 km/h (0 Bft)
28.11.2008 02:17 21,8 C -3,8 C 1,2 C 89 % 1010 hPa 0,0 l/m 0,0 km/h (0 Bft)
28.11.2008 02:20 21,8 C -3,9 C 1,2 C 89 % 1010 hPa 0,0 l/m 0,0 km/h (0 Bft)
28.11.2008 02:23 21,8 C -4,1 C 1,2 C 88 % 1010 hPa 0,0 l/m 0,0 km/h (0 Bft)
28.11.2008 02:26 21,8 C -4,3 C 1,2 C 88 % 1010 hPa 0,0 l/m 3,2 km/h (1 Bft)
28.11.2008 02:29 21,8 C -4,5 C 1,2 C 88 % 1010 hPa 0,0 l/m 0,3 km/h (0 Bft)
28.11.2008 02:32 21,8 C -4,6 C 1,2 C 89 % 1010 hPa 0,0 l/m 0,0 km/h (0 Bft)
28.11.2008 02:35 21,8 C -4,5 C 1,2 C 89 % 1010 hPa 0,0 l/m 0,0 km/h (0 Bft)
28.11.2008 02:38 21,8 C -4,4 C 1,2 C 89 % 1010 hPa 0,0 l/m 0,0 km/h (0 Bft)
28.11.2008 02:41 21,8 C -4,4 C 1,2 C 89 % 1010 hPa 0,0 l/m 0,0 km/h (0 Bft)
28.11.2008 02:44 21,8 C -4,3 C 1,2 C 89 % 1010 hPa 0,0 l/m 0,0 km/h (0 Bft)
28.11.2008 02:47 21,8 C -4,2 C 1,2 C 89 % 1010 hPa 0,0 l/m 0,0 km/h (0 Bft)
28.11.2008 02:50 21,8 C -4,2 C 1,2 C 90 % 1010 hPa 0,0 l/m 0,0 km/h (0 Bft)
28.11.2008 02:53 21,8 C -4,2 C 1,2 C 89 % 1010 hPa 0,0 l/m 0,0 km/h (0 Bft)
28.11.2008 02:56 21,8 C -4,2 C 1,2 C 89 % 1010 hPa 0,0 l/m 0,0 km/h (0 Bft)
28.11.2008 02:59 21,8 C -4,2 C 1,2 C 89 % 1010 hPa 0,0 l/m 0,0 km/h (0 Bft)
28.11.2008 03:02 21,8 C -4,3 C 1,2 C 89 % 1010 hPa 0,0 l/m 0,0 km/h (0 Bft)
28.11.2008 03:05 21,8 C -4,4 C 1,2 C 90 % 1010 hPa 0,0 l/m 0,0 km/h (0 Bft)
28.11.2008 03:08 21,8 C -4,5 C 1,2 C 90 % 1010 hPa 0,0 l/m 0,0 km/h (0 Bft)
28.11.2008 03:11 21,8 C -4,5 C 1,2 C 90 % 1010 hPa 0,0 l/m 0,0 km/h (0 Bft)
28.11.2008 03:14 21,8 C -4,5 C 1,2 C 90 % 1010 hPa 0,0 l/m 0,0 km/h (0 Bft)
28.11.2008 03:17 21,8 C -4,5 C 1,2 C 90 % 1009 hPa 0,0 l/m 0,0 km/h (0 Bft)
28.11.2008 03:20 21,8 C -4,5 C 1,2 C 90 % 1010 hPa 0,0 l/m 0,0 km/h (0 Bft)
28.11.2008 03:23 21,8 C -4,4 C 1,2 C 90 % 1010 hPa 0,0 l/m 0,0 km/h (0 Bft)
28.11.2008 03:26 21,7 C -4,4 C 1,2 C 92 % 1009 hPa 0,0 l/m 0,0 km/h (0 Bft)
28.11.2008 03:29 21,7 C -4,4 C 1,2 C 91 % 1009 hPa 0,0 l/m 0,0 km/h (0 Bft)
28.11.2008 03:32 21,7 C -4,5 C 1,2 C 91 % 1009 hPa 0,0 l/m 0,0 km/h (0 Bft)
28.11.2008 03:35 21,7 C -4,4 C 1,2 C 91 % 1009 hPa 0,0 l/m 0,0 km/h (0 Bft)
28.11.2008 03:38 21,7 C -4,4 C 1,2 C 91 % 1009 hPa 0,0 l/m 0,0 km/h (0 Bft)
28.11.2008 03:41 21,8 C -4,2 C 1,2 C 91 % 1009 hPa 0,0 l/m 0,0 km/h (0 Bft)
28.11.2008 03:44 21,7 C -4,2 C 1,2 C 91 % 1009 hPa 0,0 l/m 0,0 km/h (0 Bft)
28.11.2008 03:47 21,7 C -4,1 C 1,2 C 91 % 1009 hPa 0,0 l/m 0,0 km/h (0 Bft)
28.11.2008 03:50 21,7 C -4,0 C 1,2 C 91 % 1009 hPa 0,0 l/m 0,0 km/h (0 Bft)
28.11.2008 03:53 21,7 C -4,0 C 1,2 C 91 % 1009 hPa 0,0 l/m 0,0 km/h (0 Bft)
28.11.2008 03:56 21,7 C -4,0 C 1,2 C 91 % 1009 hPa 0,0 l/m 0,0 km/h (0 Bft)
28.11.2008 03:59 21,7 C -4,0 C 1,2 C 91 % 1009 hPa 0,0 l/m 0,0 km/h (0 Bft)
28.11.2008 04:02 21,7 C -4,0 C 1,2 C 91 % 1009 hPa 0,0 l/m 0,0 km/h (0 Bft)
28.11.2008 04:05 21,7 C -4,0 C 1,2 C 91 % 1009 hPa 0,0 l/m 0,0 km/h (0 Bft)
28.11.2008 04:08 21,7 C -4,0 C 1,2 C 90 % 1009 hPa 0,0 l/m 0,0 km/h (0 Bft)
28.11.2008 04:11 21,7 C -4,1 C 1,2 C 90 % 1009 hPa 0,0 l/m 0,0 km/h (0 Bft)
28.11.2008 04:14 21,7 C -4,1 C 1,2 C 90 % 1009 hPa 0,0 l/m 0,0 km/h (0 Bft)
28.11.2008 04:17 21,7 C -4,5 C 1,2 C 89 % 1009 hPa 0,0 l/m 0,1 km/h (0 Bft)
28.11.2008 04:20 21,7 C -4,5 C 1,1 C 89 % 1009 hPa 0,0 l/m 0,0 km/h (0 Bft)
28.11.2008 04:23 21,7 C -4,7 C 1,1 C 89 % 1009 hPa 0,0 l/m 0,0 km/h (0 Bft)
28.11.2008 04:26 21,7 C -4,8 C 1,1 C 90 % 1009 hPa 0,0 l/m 0,0 km/h (0 Bft)
28.11.2008 04:29 21,7 C -4,7 C 1,2 C 90 % 1009 hPa 0,0 l/m 0,0 km/h (0 Bft)
28.11.2008 04:32 21,7 C -4,7 C 1,2 C 90 % 1009 hPa 0,0 l/m 0,0 km/h (0 Bft)
28.11.2008 04:35 21,7 C -4,7 C 1,2 C 90 % 1009 hPa 0,0 l/m 0,0 km/h (0 Bft)
28.11.2008 04:38 21,7 C -4,6 C 1,2 C 90 % 1009 hPa 0,0 l/m 0,0 km/h (0 Bft)
28.11.2008 04:41 21,7 C -4,5 C 1,1 C 90 % 1008 hPa 0,0 l/m 0,0 km/h (0 Bft)
28.11.2008 04:44 21,7 C -4,5 C 1,1 C 90 % 1008 hPa 0,0 l/m 0,0 km/h (0 Bft)
28.11.2008 04:47 21,7 C -4,5 C 1,1 C 90 % 1008 hPa 0,0 l/m 0,0 km/h (0 Bft)
28.11.2008 04:50 21,7 C -4,5 C 1,1 C 90 % 1008 hPa 0,0 l/m 0,0 km/h (0 Bft)
28.11.2008 04:53 21,7 C -4,5 C 1,1 C 90 % 1008 hPa 0,0 l/m 0,0 km/h (0 Bft)
28.11.2008 04:56 21,2 C -4,5 C 1,1 C 90 % 1008 hPa 0,0 l/m 0,0 km/h (0 Bft)
28.11.2008 04:59 19,6 C -4,5 C 1,2 C 90 % 1008 hPa 0,0 l/m 0,0 km/h (0 Bft)
28.11.2008 05:02 18,0 C -4,5 C 1,2 C 90 % 1008 hPa 0,0 l/m 0,0 km/h (0 Bft)
28.11.2008 05:05 16,7 C -4,5 C 1,2 C 89 % 1008 hPa 0,0 l/m 0,0 km/h (0 Bft)
28.11.2008 05:08 15,7 C -4,6 C 1,2 C 89 % 1008 hPa 0,0 l/m 0,0 km/h (0 Bft)
28.11.2008 05:11 17,6 C -4,6 C 1,1 C 89 % 1008 hPa 0,0 l/m 0,0 km/h (0 Bft)
28.11.2008 05:14 18,2 C -4,7 C 1,2 C 89 % 1008 hPa 0,0 l/m 0,0 km/h (0 Bft)
28.11.2008 05:17 18,2 C -4,7 C 1,1 C 89 % 1008 hPa 0,0 l/m 0,0 km/h (0 Bft)
28.11.2008 05:20 19,6 C -4,7 C 1,1 C 89 % 1008 hPa 0,0 l/m 0,0 km/h (0 Bft)
28.11.2008 05:23 19,8 C -4,7 C 1,1 C 89 % 1008 hPa 0,0 l/m 0,0 km/h (0 Bft)
28.11.2008 05:26 20,0 C -4,7 C 1,2 C 89 % 1008 hPa 0,0 l/m 0,0 km/h (0 Bft)
28.11.2008 05:29 20,2 C -4,7 C 1,1 C 89 % 1008 hPa 0,0 l/m 0,0 km/h (0 Bft)
28.11.2008 05:32 20,3 C -4,7 C 1,1 C 90 % 1008 hPa 0,0 l/m 0,0 km/h (0 Bft)
28.11.2008 05:35 20,4 C -4,7 C 1,1 C 90 % 1008 hPa 0,0 l/m 0,0 km/h (0 Bft)
28.11.2008 05:38 20,5 C -4,7 C 1,1 C 90 % 1008 hPa 0,0 l/m 0,0 km/h (0 Bft)
28.11.2008 05:41 20,6 C -4,7 C 1,1 C 90 % 1008 hPa 0,0 l/m 0,0 km/h (0 Bft)
28.11.2008 05:44 20,7 C -4,8 C 1,1 C 90 % 1008 hPa 0,0 l/m 0,0 km/h (0 Bft)
28.11.2008 05:47 20,8 C -4,7 C 1,1 C 90 % 1008 hPa 0,0 l/m 0,0 km/h (0 Bft)
28.11.2008 05:50 20,8 C -4,6 C 1,2 C 91 % 1008 hPa 0,0 l/m 0,0 km/h (0 Bft)
28.11.2008 05:53 20,9 C -4,6 C 1,2 C 90 % 1008 hPa 0,0 l/m 0,0 km/h (0 Bft)
28.11.2008 05:56 21,0 C -4,6 C 1,2 C 90 % 1008 hPa 0,0 l/m 0,0 km/h (0 Bft)
28.11.2008 05:59 21,0 C -4,6 C 1,1 C 90 % 1008 hPa 0,0 l/m 0,0 km/h (0 Bft)
28.11.2008 06:02 21,0 C -4,6 C 1,1 C 90 % 1008 hPa 0,0 l/m 0,0 km/h (0 Bft)
28.11.2008 06:05 21,0 C -4,6 C 1,1 C 90 % 1008 hPa 0,0 l/m 0,0 km/h (0 Bft)
28.11.2008 06:08 21,0 C -4,6 C 1,1 C 90 % 1008 hPa 0,0 l/m 0,0 km/h (0 Bft)
28.11.2008 06:11 21,1 C -4,6 C 1,2 C 90 % 1008 hPa 0,0 l/m 0,0 km/h (0 Bft)
28.11.2008 06:14 21,2 C -4,5 C 1,2 C 90 % 1008 hPa 0,0 l/m 0,0 km/h (0 Bft)
28.11.2008 06:17 21,2 C -4,5 C 1,2 C 90 % 1008 hPa 0,0 l/m 0,0 km/h (0 Bft)
28.11.2008 06:20 21,2 C -4,5 C 1,2 C 90 % 1008 hPa 0,0 l/m 0,0 km/h (0 Bft)
28.11.2008 06:23 21,2 C -4,5 C 1,1 C 90 % 1008 hPa 0,0 l/m 0,0 km/h (0 Bft)
28.11.2008 06:26 21,2 C -4,6 C 1,1 C 89 % 1008 hPa 0,0 l/m 0,0 km/h (0 Bft)
28.11.2008 06:29 21,3 C -4,6 C 1,1 C 89 % 1008 hPa 0,0 l/m 0,0 km/h (0 Bft)
28.11.2008 06:32 21,3 C -4,6 C 1,1 C 89 % 1008 hPa 0,0 l/m 0,0 km/h (0 Bft)
28.11.2008 06:35 21,4 C -4,6 C 1,1 C 89 % 1008 hPa 0,0 l/m 0,0 km/h (0 Bft)
28.11.2008 06:38 21,4 C -4,7 C 1,1 C 89 % 1008 hPa 0,0 l/m 0,0 km/h (0 Bft)
28.11.2008 06:41 21,5 C -4,7 C 1,1 C 89 % 1008 hPa 0,0 l/m 0,0 km/h (0 Bft)
28.11.2008 06:44 21,6 C -4,7 C 1,1 C 89 % 1008 hPa 0,0 l/m 0,0 km/h (0 Bft)
28.11.2008 06:47 21,6 C -4,6 C 1,1 C 90 % 1008 hPa 0,0 l/m 0,0 km/h (0 Bft)
28.11.2008 06:50 21,6 C -4,6 C 1,1 C 90 % 1008 hPa 0,0 l/m 0,0 km/h (0 Bft)
28.11.2008 06:53 21,7 C -4,4 C 1,1 C 90 % 1007 hPa 0,0 l/m 0,3 km/h (0 Bft)
28.11.2008 06:56 21,7 C -4,2 C 1,1 C 90 % 1007 hPa 0,0 l/m 0,0 km/h (0 Bft)
28.11.2008 06:59 21,8 C -4,1 C 1,0 C 91 % 1007 hPa 0,0 l/m 1,2 km/h (1 Bft)
28.11.2008 07:02 21,8 C -3,9 C 1,1 C 91 % 1007 hPa 0,0 l/m 0,3 km/h (0 Bft)
28.11.2008 07:05 21,7 C -3,8 C 1,1 C 91 % 1007 hPa 0,0 l/m 0,2 km/h (0 Bft)
28.11.2008 07:08 21,7 C -3,8 C 1,1 C 91 % 1007 hPa 0,0 l/m 1,3 km/h (1 Bft)
28.11.2008 07:11 21,6 C -3,5 C 1,0 C 92 % 1007 hPa 0,0 l/m 1,3 km/h (1 Bft)
28.11.2008 07:14 21,6 C -3,4 C 1,0 C 92 % 1007 hPa 0,0 l/m 4,0 km/h (1 Bft)
28.11.2008 07:17 21,6 C -3,4 C 1,0 C 92 % 1007 hPa 0,0 l/m 4,3 km/h (1 Bft)
28.11.2008 07:20 21,6 C -3,2 C 1,0 C 92 % 1007 hPa 0,0 l/m 3,9 km/h (1 Bft)
28.11.2008 07:23 21,6 C -3,1 C 1,0 C 93 % 1007 hPa 0,0 l/m 1,6 km/h (1 Bft)
28.11.2008 07:26 21,6 C -3,1 C 0,9 C 93 % 1007 hPa 0,0 l/m 3,8 km/h (1 Bft)
28.11.2008 07:29 21,6 C -3,0 C 0,9 C 93 % 1007 hPa 0,0 l/m 3,8 km/h (1 Bft)
28.11.2008 07:32 21,5 C -3,1 C 0,9 C 93 % 1007 hPa 0,0 l/m 0,1 km/h (0 Bft)
28.11.2008 07:35 21,6 C -3,2 C 1,0 C 92 % 1007 hPa 0,0 l/m 1,4 km/h (1 Bft)
28.11.2008 07:38 21,5 C -3,2 C 1,0 C 93 % 1007 hPa 0,0 l/m 3,4 km/h (1 Bft)
28.11.2008 07:41 21,6 C -3,3 C 1,1 C 93 % 1007 hPa 0,0 l/m 0,3 km/h (0 Bft)
28.11.2008 07:44 21,6 C -3,3 C 1,2 C 93 % 1007 hPa 0,0 l/m 0,0 km/h (0 Bft)
28.11.2008 07:47 21,6 C -3,3 C 1,2 C 92 % 1007 hPa 0,0 l/m 0,0 km/h (0 Bft)
28.11.2008 07:50 21,6 C -3,3 C 1,1 C 92 % 1007 hPa 0,0 l/m 0,0 km/h (0 Bft)
28.11.2008 07:53 21,6 C -3,3 C 1,2 C 93 % 1007 hPa 0,0 l/m 0,0 km/h (0 Bft)
28.11.2008 07:56 21,6 C -3,3 C 1,2 C 93 % 1007 hPa 0,0 l/m 0,0 km/h (0 Bft)
28.11.2008 07:59 21,6 C -3,3 C 1,2 C 92 % 1007 hPa 0,0 l/m 0,0 km/h (0 Bft)
28.11.2008 08:02 21,6 C -3,4 C 1,2 C 92 % 1007 hPa 0,0 l/m 0,0 km/h (0 Bft)
28.11.2008 08:05 21,6 C -3,4 C 1,2 C 92 % 1007 hPa 0,0 l/m 0,0 km/h (0 Bft)
28.11.2008 08:08 21,5 C -3,4 C 1,2 C 92 % 1007 hPa 0,0 l/m 0,0 km/h (0 Bft)
28.11.2008 08:11 21,6 C -3,4 C 1,2 C 92 % 1007 hPa 0,0 l/m 0,0 km/h (0 Bft)
28.11.2008 08:14 21,6 C -3,4 C 1,2 C 91 % 1007 hPa 0,0 l/m 0,0 km/h (0 Bft)
28.11.2008 08:17 21,5 C -3,4 C 1,2 C 92 % 1007 hPa 0,0 l/m 0,0 km/h (0 Bft)
28.11.2008 08:20 21,5 C -3,4 C 1,2 C 92 % 1007 hPa 0,0 l/m 0,0 km/h (0 Bft)
28.11.2008 08:23 21,5 C -3,3 C 1,2 C 92 % 1007 hPa 0,0 l/m 0,0 km/h (0 Bft)
28.11.2008 08:26 21,6 C -3,2 C 1,2 C 92 % 1006 hPa 0,0 l/m 0,0 km/h (0 Bft)
28.11.2008 08:29 21,5 C -3,0 C 1,1 C 92 % 1006 hPa 0,0 l/m 0,0 km/h (0 Bft)
28.11.2008 08:32 21,5 C -3,0 C 1,1 C 92 % 1006 hPa 0,0 l/m 0,0 km/h (0 Bft)
28.11.2008 08:35 21,6 C -2,9 C 1,1 C 92 % 1006 hPa 0,0 l/m 1,4 km/h (1 Bft)
28.11.2008 08:38 21,6 C -2,9 C 1,1 C 92 % 1006 hPa 0,0 l/m 3,6 km/h (1 Bft)
28.11.2008 08:41 21,6 C -2,8 C 1,1 C 92 % 1006 hPa 0,0 l/m 2,5 km/h (1 Bft)
28.11.2008 08:44 21,5 C -2,7 C 1,1 C 92 % 1006 hPa 0,0 l/m 0,2 km/h (0 Bft)
28.11.2008 08:47 21,5 C -2,6 C 1,2 C 92 % 1006 hPa 0,0 l/m 0,3 km/h (0 Bft)
28.11.2008 08:50 21,5 C -2,6 C 1,1 C 92 % 1006 hPa 0,0 l/m 0,6 km/h (0 Bft)
28.11.2008 08:53 21,6 C -2,6 C 1,1 C 91 % 1006 hPa 0,0 l/m 0,6 km/h (0 Bft)
28.11.2008 08:56 21,6 C -2,4 C 1,1 C 92 % 1006 hPa 0,0 l/m 4,1 km/h (1 Bft)
28.11.2008 08:59 21,5 C -2,2 C 1,1 C 92 % 1006 hPa 0,0 l/m 4,1 km/h (1 Bft)
28.11.2008 09:02 21,5 C -2,2 C 1,1 C 92 % 1006 hPa 0,0 l/m 0,2 km/h (0 Bft)
28.11.2008 09:05 21,5 C -2,2 C 1,1 C 92 % 1006 hPa 0,0 l/m 1,8 km/h (1 Bft)
28.11.2008 09:08 21,5 C -2,2 C 1,2 C 92 % 1006 hPa 0,0 l/m 0,6 km/h (0 Bft)
28.11.2008 09:11 21,5 C -2,1 C 1,2 C 92 % 1005 hPa 0,0 l/m 0,3 km/h (0 Bft)
28.11.2008 09:14 21,5 C -1,9 C 1,2 C 92 % 1005 hPa 0,0 l/m 0,6 km/h (0 Bft)
28.11.2008 09:17 21,5 C -2,0 C 1,2 C 92 % 1005 hPa 0,0 l/m 0,3 km/h (0 Bft)
28.11.2008 09:20 21,5 C -2,0 C 1,2 C 91 % 1005 hPa 0,0 l/m 3,3 km/h (1 Bft)
28.11.2008 09:23 21,5 C -2,0 C 1,2 C 91 % 1005 hPa 0,0 l/m 0,0 km/h (0 Bft)
28.11.2008 09:26 21,5 C -2,0 C 1,2 C 91 % 1005 hPa 0,0 l/m 0,0 km/h (0 Bft)
28.11.2008 09:29 21,5 C -1,9 C 1,2 C 91 % 1005 hPa 0,0 l/m 0,0 km/h (0 Bft)
28.11.2008 09:32 21,5 C -1,9 C 1,3 C 91 % 1005 hPa 0,0 l/m 0,0 km/h (0 Bft)
28.11.2008 09:35 21,5 C -1,9 C 1,3 C 91 % 1005 hPa 0,0 l/m 0,0 km/h (0 Bft)
28.11.2008 09:38 21,5 C -1,8 C 1,3 C 91 % 1005 hPa 0,0 l/m 0,0 km/h (0 Bft)
28.11.2008 09:41 21,5 C -1,8 C 1,3 C 91 % 1005 hPa 0,0 l/m 0,0 km/h (0 Bft)
28.11.2008 09:44 21,5 C -1,8 C 1,3 C 91 % 1005 hPa 0,0 l/m 0,0 km/h (0 Bft)
28.11.2008 09:47 21,5 C -1,8 C 1,3 C 91 % 1005 hPa 0,0 l/m 0,0 km/h (0 Bft)
28.11.2008 09:50 21,5 C -1,6 C 1,2 C 91 % 1005 hPa 0,0 l/m 0,0 km/h (0 Bft)
28.11.2008 09:53 21,5 C -1,5 C 1,2 C 91 % 1005 hPa 0,0 l/m 1,0 km/h (0 Bft)
28.11.2008 09:56 21,5 C -1,4 C 1,2 C 91 % 1005 hPa 0,0 l/m 1,0 km/h (0 Bft)
28.11.2008 09:59 21,5 C -1,3 C 1,2 C 91 % 1005 hPa 0,0 l/m 2,1 km/h (1 Bft)
28.11.2008 10:02 21,5 C -1,3 C 1,2 C 91 % 1004 hPa 0,0 l/m 2,3 km/h (1 Bft)
28.11.2008 10:05 21,5 C -1,1 C 1,2 C 91 % 1004 hPa 0,0 l/m 0,4 km/h (0 Bft)
28.11.2008 10:08 21,5 C -1,0 C 1,2 C 90 % 1004 hPa 0,0 l/m 0,0 km/h (0 Bft)
28.11.2008 10:11 21,5 C -1,0 C 1,3 C 90 % 1004 hPa 0,0 l/m 0,0 km/h (0 Bft)
28.11.2008 10:14 21,5 C -0,9 C 1,2 C 90 % 1004 hPa 0,0 l/m 0,5 km/h (0 Bft)
28.11.2008 10:17 21,5 C -0,8 C 1,2 C 90 % 1004 hPa 0,0 l/m 0,7 km/h (0 Bft)
28.11.2008 10:20 21,5 C -0,8 C 1,2 C 90 % 1004 hPa 0,0 l/m 0,1 km/h (0 Bft)
28.11.2008 10:23 21,5 C -0,7 C 1,2 C 90 % 1004 hPa 0,0 l/m 0,7 km/h (0 Bft)
28.11.2008 10:26 21,5 C -0,7 C 1,2 C 90 % 1004 hPa 0,0 l/m 0,3 km/h (0 Bft)
28.11.2008 10:29 21,5 C -0,5 C 1,2 C 90 % 1004 hPa 0,0 l/m 5,6 km/h (1 Bft)
28.11.2008 10:32 21,5 C -0,3 C 1,2 C 90 % 1004 hPa 0,0 l/m 0,4 km/h (0 Bft)
28.11.2008 10:35 21,5 C -0,3 C 1,2 C 90 % 1004 hPa 0,0 l/m 5,9 km/h (2 Bft)
28.11.2008 10:38 21,5 C -0,2 C 1,2 C 90 % 1004 hPa 0,0 l/m 5,7 km/h (1 Bft)
28.11.2008 10:41 21,5 C -0,2 C 1,2 C 90 % 1004 hPa 0,0 l/m 5,7 km/h (1 Bft)
28.11.2008 10:44 21,5 C 0,0 C 1,2 C 90 % 1004 hPa 0,0 l/m 9,3 km/h (2 Bft)
28.11.2008 10:47 21,5 C 0,0 C 1,2 C 90 % 1004 hPa 0,0 l/m 7,4 km/h (2 Bft)
28.11.2008 10:50 21,5 C 0,1 C 1,2 C 90 % 1004 hPa 0,0 l/m 7,3 km/h (2 Bft)
28.11.2008 10:53 21,5 C 0,0 C 1,2 C 90 % 1004 hPa 0,0 l/m 9,6 km/h (2 Bft)
28.11.2008 10:56 21,5 C 0,1 C 1,1 C 90 % 1004 hPa 0,0 l/m 10,1 km/h (2 Bft)
28.11.2008 10:59 21,4 C 0,1 C 1,1 C 90 % 1004 hPa 0,0 l/m 10,8 km/h (2 Bft)
28.11.2008 11:02 21,4 C 0,1 C 1,2 C 90 % 1003 hPa 0,0 l/m 3,7 km/h (1 Bft)
28.11.2008 11:05 21,4 C 0,2 C 1,2 C 90 % 1003 hPa 0,0 l/m 5,9 km/h (2 Bft)
28.11.2008 11:08 21,5 C 0,3 C 1,3 C 90 % 1003 hPa 0,0 l/m 6,0 km/h (2 Bft)
28.11.2008 11:11 21,5 C 0,2 C 1,2 C 90 % 1003 hPa 0,0 l/m 6,6 km/h (2 Bft)
28.11.2008 11:14 21,4 C 0,3 C 1,2 C 90 % 1003 hPa 0,0 l/m 6,3 km/h (2 Bft)
28.11.2008 11:17 21,4 C 0,3 C 1,2 C 90 % 1003 hPa 0,0 l/m 6,8 km/h (2 Bft)
28.11.2008 11:20 21,4 C 0,3 C 1,2 C 89 % 1003 hPa 0,0 l/m 9,0 km/h (2 Bft)
28.11.2008 11:23 21,4 C 0,3 C 1,2 C 89 % 1003 hPa 0,0 l/m 6,5 km/h (2 Bft)
28.11.2008 11:26 21,5 C 0,3 C 1,2 C 89 % 1003 hPa 0,0 l/m 6,1 km/h (2 Bft)
28.11.2008 11:29 21,4 C 0,4 C 1,2 C 89 % 1002 hPa 0,0 l/m 5,1 km/h (1 Bft)
28.11.2008 11:32 21,4 C 0,5 C 1,2 C 89 % 1002 hPa 0,0 l/m 7,7 km/h (2 Bft)
28.11.2008 11:35 21,4 C 0,5 C 1,2 C 89 % 1002 hPa 0,0 l/m 8,9 km/h (2 Bft)
28.11.2008 11:38 21,4 C 0,5 C 1,2 C 89 % 1002 hPa 0,0 l/m 1,2 km/h (1 Bft)
28.11.2008 11:41 21,4 C 0,5 C 1,3 C 89 % 1002 hPa 0,0 l/m 0,0 km/h (0 Bft)
28.11.2008 11:44 21,4 C 0,5 C 1,2 C 88 % 1002 hPa 0,0 l/m 3,0 km/h (1 Bft)
28.11.2008 11:47 21,4 C 0,5 C 1,2 C 88 % 1002 hPa 0,0 l/m 5,0 km/h (1 Bft)
28.11.2008 11:50 21,4 C 0,6 C 1,2 C 88 % 1002 hPa 0,0 l/m 8,6 km/h (2 Bft)
28.11.2008 11:53 21,4 C 0,6 C 1,2 C 88 % 1002 hPa 0,0 l/m 3,3 km/h (1 Bft)
28.11.2008 11:56 21,4 C 0,6 C 1,2 C 88 % 1002 hPa 0,0 l/m 5,9 km/h (2 Bft)
28.11.2008 11:59 21,4 C 0,6 C 1,2 C 88 % 1002 hPa 0,0 l/m 5,9 km/h (2 Bft)
28.11.2008 12:02 21,4 C 0,6 C 1,2 C 88 % 1002 hPa 0,0 l/m 10,3 km/h (2 Bft)
28.11.2008 12:05 21,4 C 0,7 C 1,2 C 88 % 1002 hPa 0,0 l/m 7,1 km/h (2 Bft)
28.11.2008 12:08 21,4 C 0,7 C 1,2 C 88 % 1002 hPa 0,0 l/m 5,4 km/h (1 Bft)
28.11.2008 12:11 21,4 C 0,7 C 1,2 C 88 % 1002 hPa 0,0 l/m 5,7 km/h (1 Bft)
28.11.2008 12:14 21,4 C 0,8 C 1,3 C 88 % 1002 hPa 0,0 l/m 4,8 km/h (1 Bft)
28.11.2008 12:17 21,4 C 0,9 C 1,2 C 88 % 1001 hPa 0,0 l/m 6,0 km/h (2 Bft)
28.11.2008 12:20 21,4 C 0,9 C 1,2 C 88 % 1001 hPa 0,0 l/m 4,6 km/h (1 Bft)
28.11.2008 12:23 21,4 C 1,1 C 1,2 C 87 % 1001 hPa 0,0 l/m 4,8 km/h (1 Bft)
28.11.2008 12:26 21,4 C 1,1 C 1,2 C 87 % 1001 hPa 0,0 l/m 7,1 km/h (2 Bft)
28.11.2008 12:29 21,4 C 1,1 C 1,2 C 87 % 1001 hPa 0,0 l/m 5,7 km/h (1 Bft)
28.11.2008 12:32 21,5 C 1,1 C 1,2 C 87 % 1001 hPa 0,0 l/m 5,7 km/h (1 Bft)
28.11.2008 12:35 21,4 C 1,1 C 1,2 C 87 % 1001 hPa 0,0 l/m 6,8 km/h (2 Bft)
28.11.2008 12:38 21,5 C 1,2 C 1,2 C 87 % 1001 hPa 0,0 l/m 6,8 km/h (2 Bft)
28.11.2008 12:41 21,4 C 1,2 C 1,2 C 87 % 1001 hPa 0,0 l/m 6,3 km/h (2 Bft)
28.11.2008 12:44 21,4 C 1,2 C 1,2 C 87 % 1001 hPa 0,0 l/m 5,0 km/h (1 Bft)
28.11.2008 12:47 21,4 C 1,2 C 1,3 C 87 % 1000 hPa 0,0 l/m 5,0 km/h (1 Bft)
28.11.2008 12:50 21,4 C 1,2 C 1,2 C 86 % 1000 hPa 0,0 l/m 5,0 km/h (1 Bft)
28.11.2008 12:53 21,4 C 1,2 C 1,3 C 86 % 1000 hPa 0,0 l/m 1,3 km/h (1 Bft)
28.11.2008 12:56 21,4 C 1,0 C 1,2 C 87 % 1000 hPa 0,0 l/m 0,4 km/h (0 Bft)
28.11.2008 12:59 21,4 C 1,1 C 1,2 C 87 % 1000 hPa 0,0 l/m 0,2 km/h (0 Bft)
28.11.2008 13:02 21,4 C 1,1 C 1,2 C 87 % 1000 hPa 0,0 l/m 0,5 km/h (0 Bft)
28.11.2008 13:05 21,4 C 1,1 C 1,3 C 87 % 1000 hPa 0,0 l/m 3,0 km/h (1 Bft)
28.11.2008 13:08 21,4 C 1,2 C 1,3 C 87 % 1000 hPa 0,0 l/m 0,6 km/h (0 Bft)
28.11.2008 13:11 21,4 C 1,1 C 1,3 C 87 % 1000 hPa 0,0 l/m 0,7 km/h (0 Bft)
28.11.2008 13:14 21,5 C 1,2 C 1,3 C 86 % 1000 hPa 0,0 l/m 0,7 km/h (0 Bft)
28.11.2008 13:17 21,5 C 1,2 C 1,3 C 86 % 999 hPa 0,0 l/m 4,0 km/h (1 Bft)
28.11.2008 13:20 21,5 C 1,2 C 1,3 C 86 % 999 hPa 0,0 l/m 0,3 km/h (0 Bft)
28.11.2008 13:23 21,5 C 1,2 C 1,4 C 86 % 999 hPa 0,0 l/m 0,1 km/h (0 Bft)
28.11.2008 13:26 21,5 C 1,2 C 1,4 C 86 % 999 hPa 0,0 l/m 1,5 km/h (1 Bft)
28.11.2008 13:29 21,4 C 1,2 C 1,4 C 86 % 999 hPa 0,0 l/m 0,0 km/h (0 Bft)
28.11.2008 13:32 21,4 C 1,2 C 1,4 C 86 % 999 hPa 0,0 l/m 0,1 km/h (0 Bft)
28.11.2008 13:35 21,4 C 1,2 C 1,4 C 86 % 999 hPa 0,0 l/m 0,0 km/h (0 Bft)
28.11.2008 13:38 21,4 C 1,2 C 1,4 C 86 % 999 hPa 0,0 l/m 0,0 km/h (0 Bft)
28.11.2008 13:41 21,4 C 1,2 C 1,4 C 86 % 999 hPa 0,0 l/m 0,0 km/h (0 Bft)
28.11.2008 13:44 21,4 C 1,2 C 1,4 C 86 % 999 hPa 0,0 l/m 0,0 km/h (0 Bft)
28.11.2008 13:47 21,4 C 1,2 C 1,4 C 86 % 999 hPa 0,0 l/m 0,0 km/h (0 Bft)
28.11.2008 13:50 21,4 C 1,2 C 1,4 C 86 % 999 hPa 0,0 l/m 0,0 km/h (0 Bft)
28.11.2008 13:53 21,4 C 1,2 C 1,4 C 86 % 999 hPa 0,0 l/m 0,0 km/h (0 Bft)
28.11.2008 13:56 21,4 C 1,2 C 1,4 C 86 % 999 hPa 0,0 l/m 0,0 km/h (0 Bft)
28.11.2008 13:59 21,4 C 1,2 C 1,4 C 86 % 998 hPa 0,0 l/m 0,0 km/h (0 Bft)
28.11.2008 14:02 21,4 C 1,2 C 1,4 C 86 % 998 hPa 0,0 l/m 0,0 km/h (0 Bft)
28.11.2008 14:05 21,4 C 1,1 C 1,4 C 86 % 998 hPa 0,0 l/m 0,0 km/h (0 Bft)
28.11.2008 14:08 21,4 C 1,1 C 1,4 C 86 % 998 hPa 0,0 l/m 0,3 km/h (0 Bft)
28.11.2008 14:11 21,4 C 1,1 C 1,4 C 86 % 998 hPa 0,0 l/m 0,4 km/h (0 Bft)
28.11.2008 14:14 21,4 C 1,1 C 1,4 C 86 % 998 hPa 0,0 l/m 2,4 km/h (1 Bft)
28.11.2008 14:17 21,5 C 1,2 C 1,3 C 86 % 998 hPa 0,0 l/m 0,0 km/h (0 Bft)
28.11.2008 14:20 21,5 C 1,1 C 1,4 C 86 % 998 hPa 0,0 l/m 0,1 km/h (0 Bft)
28.11.2008 14:23 21,5 C 1,2 C 1,4 C 86 % 998 hPa 0,0 l/m 0,0 km/h (0 Bft)
28.11.2008 14:26 21,5 C 1,2 C 1,4 C 86 % 998 hPa 0,0 l/m 0,0 km/h (0 Bft)
28.11.2008 14:29 21,5 C 1,2 C 1,4 C 86 % 998 hPa 0,0 l/m 0,0 km/h (0 Bft)
28.11.2008 14:32 21,5 C 1,2 C 1,4 C 86 % 998 hPa 0,0 l/m 0,0 km/h (0 Bft)
28.11.2008 14:35 21,5 C 1,1 C 1,5 C 86 % 998 hPa 0,0 l/m 0,0 km/h (0 Bft)
28.11.2008 14:38 21,5 C 1,0 C 1,4 C 87 % 997 hPa 0,0 l/m 0,0 km/h (0 Bft)
28.11.2008 14:41 21,5 C 1,0 C 1,4 C 87 % 997 hPa 0,0 l/m 0,0 km/h (0 Bft)
28.11.2008 14:44 21,6 C 1,1 C 1,4 C 87 % 997 hPa 0,0 l/m 0,0 km/h (0 Bft)
28.11.2008 14:47 21,5 C 1,1 C 1,4 C 87 % 997 hPa 0,0 l/m 0,0 km/h (0 Bft)
28.11.2008 14:50 21,6 C 0,9 C 1,5 C 87 % 997 hPa 0,0 l/m 0,0 km/h (0 Bft)
28.11.2008 14:53 21,6 C 0,9 C 1,4 C 87 % 997 hPa 0,0 l/m 0,0 km/h (0 Bft)
28.11.2008 14:56 21,5 C 0,9 C 1,4 C 87 % 997 hPa 0,0 l/m 0,0 km/h (0 Bft)
28.11.2008 14:59 21,5 C 0,8 C 1,4 C 87 % 997 hPa 0,0 l/m 0,0 km/h (0 Bft)
28.11.2008 15:02 21,5 C 0,8 C 1,4 C 88 % 997 hPa 0,0 l/m 0,0 km/h (0 Bft)
28.11.2008 15:05 21,5 C 0,7 C 1,4 C 88 % 997 hPa 0,0 l/m 0,0 km/h (0 Bft)
28.11.2008 15:08 21,4 C 0,7 C 1,4 C 88 % 997 hPa 0,0 l/m 0,0 km/h (0 Bft)
28.11.2008 15:11 21,4 C 0,7 C 1,4 C 88 % 997 hPa 0,0 l/m 0,0 km/h (0 Bft)
28.11.2008 15:14 21,4 C 0,7 C 1,4 C 88 % 997 hPa 0,0 l/m 0,0 km/h (0 Bft)
28.11.2008 15:17 21,5 C 0,7 C 1,4 C 88 % 997 hPa 0,0 l/m 0,0 km/h (0 Bft)
28.11.2008 15:20 21,6 C 0,7 C 1,4 C 88 % 997 hPa 0,0 l/m 0,0 km/h (0 Bft)
28.11.2008 15:23 21,8 C 0,7 C 1,4 C 88 % 996 hPa 0,0 l/m 0,0 km/h (0 Bft)
28.11.2008 15:26 21,8 C 0,6 C 1,4 C 88 % 996 hPa 0,0 l/m 0,0 km/h (0 Bft)
28.11.2008 15:29 21,9 C 0,6 C 1,4 C 88 % 996 hPa 0,0 l/m 0,0 km/h (0 Bft)
28.11.2008 15:32 22,0 C 0,5 C 1,4 C 88 % 996 hPa 0,0 l/m 0,0 km/h (0 Bft)
28.11.2008 15:35 22,1 C 0,5 C 1,4 C 88 % 996 hPa 0,0 l/m 0,0 km/h (0 Bft)
28.11.2008 15:38 22,2 C 0,5 C 1,4 C 88 % 996 hPa 0,0 l/m 0,0 km/h (0 Bft)
28.11.2008 15:41 22,3 C 0,3 C 1,4 C 88 % 996 hPa 0,0 l/m 0,1 km/h (0 Bft)
28.11.2008 15:44 22,3 C 0,2 C 1,4 C 88 % 996 hPa 0,0 l/m 0,0 km/h (0 Bft)
28.11.2008 15:47 22,4 C 0,2 C 1,4 C 88 % 996 hPa 0,0 l/m 0,0 km/h (0 Bft)
28.11.2008 15:50 22,4 C 0,2 C 1,4 C 89 % 996 hPa 0,0 l/m 0,7 km/h (0 Bft)
28.11.2008 15:53 22,5 C 0,3 C 1,3 C 88 % 996 hPa 0,0 l/m 0,0 km/h (0 Bft)
28.11.2008 15:56 22,5 C 0,4 C 1,4 C 88 % 996 hPa 0,0 l/m 0,0 km/h (0 Bft)
28.11.2008 15:59 22,4 C 0,4 C 1,4 C 88 % 996 hPa 0,0 l/m 0,0 km/h (0 Bft)
28.11.2008 16:02 22,4 C 0,5 C 1,4 C 88 % 996 hPa 0,0 l/m 0,3 km/h (0 Bft)
28.11.2008 16:05 22,4 C 0,5 C 1,4 C 88 % 995 hPa 0,0 l/m 0,0 km/h (0 Bft)
28.11.2008 16:08 22,4 C 0,5 C 1,4 C 87 % 995 hPa 0,0 l/m 0,0 km/h (0 Bft)
28.11.2008 16:11 22,4 C 0,4 C 1,3 C 87 % 995 hPa 0,0 l/m 0,0 km/h (0 Bft)
28.11.2008 16:14 22,4 C 0,3 C 1,3 C 88 % 995 hPa 0,0 l/m 0,0 km/h (0 Bft)
28.11.2008 16:17 22,3 C 0,3 C 1,3 C 88 % 995 hPa 0,0 l/m 0,0 km/h (0 Bft)
28.11.2008 16:20 22,4 C 0,3 C 1,3 C 88 % 995 hPa 0,0 l/m 0,0 km/h (0 Bft)
28.11.2008 16:23 22,4 C 0,2 C 1,4 C 88 % 995 hPa 0,0 l/m 0,0 km/h (0 Bft)
28.11.2008 16:26 22,4 C 0,3 C 1,4 C 88 % 995 hPa 0,0 l/m 0,0 km/h (0 Bft)
28.11.2008 16:29 22,4 C 0,2 C 1,3 C 88 % 995 hPa 0,0 l/m 0,1 km/h (0 Bft)
28.11.2008 16:32 22,4 C 0,1 C 1,3 C 88 % 995 hPa 0,0 l/m 0,0 km/h (0 Bft)
28.11.2008 16:35 22,5 C 0,1 C 1,3 C 88 % 995 hPa 0,0 l/m 0,0 km/h (0 Bft)
28.11.2008 16:38 22,5 C 0,0 C 1,3 C 89 % 995 hPa 0,0 l/m 0,0 km/h (0 Bft)
28.11.2008 16:41 22,6 C 0,0 C 1,3 C 89 % 995 hPa 0,0 l/m 0,0 km/h (0 Bft)
28.11.2008 16:44 22,7 C 0,0 C 1,3 C 89 % 995 hPa 0,0 l/m 0,1 km/h (0 Bft)
28.11.2008 16:47 22,7 C 0,0 C 1,3 C 89 % 995 hPa 0,0 l/m 0,6 km/h (0 Bft)
28.11.2008 16:50 22,7 C 0,1 C 1,3 C 89 % 994 hPa 0,0 l/m 0,0 km/h (0 Bft)
28.11.2008 16:53 22,8 C 0,3 C 1,3 C 88 % 994 hPa 0,0 l/m 0,0 km/h (0 Bft)
28.11.2008 16:56 22,7 C 0,4 C 1,3 C 88 % 994 hPa 0,0 l/m 0,0 km/h (0 Bft)
28.11.2008 16:59 22,6 C 0,6 C 1,1 C 86 % 994 hPa 0,0 l/m 1,2 km/h (1 Bft)
28.11.2008 17:02 22,6 C 0,7 C 1,1 C 86 % 994 hPa 0,0 l/m 7,3 km/h (2 Bft)
28.11.2008 17:05 22,6 C 0,9 C 1,0 C 85 % 994 hPa 0,0 l/m 11,8 km/h (2 Bft)
28.11.2008 17:08 22,4 C 1,1 C 1,0 C 83 % 994 hPa 0,0 l/m 21,1 km/h (4 Bft)
28.11.2008 17:11 22,4 C 1,4 C 0,9 C 82 % 994 hPa 0,0 l/m 28,0 km/h (4 Bft)
28.11.2008 17:14 22,4 C 1,4 C 1,0 C 82 % 994 hPa 0,0 l/m 21,4 km/h (4 Bft)
28.11.2008 17:17 22,4 C 2,1 C 1,0 C 76 % 994 hPa 0,0 l/m 23,3 km/h (4 Bft)
28.11.2008 17:20 22,4 C 2,1 C 1,0 C 76 % 994 hPa 0,0 l/m 17,8 km/h (3 Bft)
28.11.2008 17:23 22,4 C 2,6 C 0,9 C 74 % 994 hPa 0,0 l/m 19,9 km/h (4 Bft)
28.11.2008 17:26 22,4 C 2,8 C 1,0 C 75 % 994 hPa 0,0 l/m 16,7 km/h (3 Bft)
28.11.2008 17:29 22,3 C 2,9 C 1,0 C 74 % 994 hPa 0,0 l/m 18,5 km/h (3 Bft)
28.11.2008 17:32 22,3 C 2,9 C 0,9 C 74 % 994 hPa 0,0 l/m 24,0 km/h (4 Bft)
28.11.2008 17:35 22,3 C 3,0 C 1,0 C 71 % 994 hPa 0,0 l/m 24,8 km/h (4 Bft)
28.11.2008 17:38 22,3 C 3,0 C 0,9 C 71 % 994 hPa 0,0 l/m 17,0 km/h (3 Bft)
28.11.2008 17:41 22,4 C 3,0 C 1,0 C 71 % 994 hPa 0,0 l/m 22,2 km/h (4 Bft)
28.11.2008 17:44 22,4 C 3,1 C 1,0 C 71 % 994 hPa 0,0 l/m 23,3 km/h (4 Bft)
28.11.2008 17:47 22,5 C 3,2 C 1,0 C 71 % 994 hPa 0,0 l/m 23,3 km/h (4 Bft)
28.11.2008 17:50 22,6 C 3,3 C 1,0 C 70 % 994 hPa 0,0 l/m 26,7 km/h (4 Bft)
28.11.2008 17:53 22,7 C 3,4 C 1,0 C 70 % 994 hPa 0,0 l/m 16,5 km/h (3 Bft)
28.11.2008 17:56 22,7 C 3,5 C 1,0 C 69 % 993 hPa 0,0 l/m 22,9 km/h (4 Bft)
28.11.2008 17:59 22,8 C 3,5 C 1,0 C 70 % 993 hPa 0,0 l/m 26,8 km/h (4 Bft)
28.11.2008 18:02 22,8 C 3,5 C 1,0 C 69 % 993 hPa 0,0 l/m 24,0 km/h (4 Bft)
28.11.2008 18:05 22,8 C 3,6 C 1,0 C 69 % 993 hPa 0,0 l/m 26,4 km/h (4 Bft)
28.11.2008 18:08 22,8 C 3,7 C 1,0 C 69 % 993 hPa 0,0 l/m 31,4 km/h (5 Bft)
28.11.2008 18:11 22,8 C 3,7 C 0,9 C 68 % 993 hPa 0,0 l/m 27,6 km/h (4 Bft)
28.11.2008 18:14 22,7 C 3,7 C 0,9 C 69 % 993 hPa 0,0 l/m 24,1 km/h (4 Bft)
28.11.2008 18:17 22,6 C 3,7 C 1,0 C 68 % 993 hPa 0,0 l/m 24,1 km/h (4 Bft)
28.11.2008 18:20 22,6 C 3,7 C 1,0 C 68 % 993 hPa 0,0 l/m 30,0 km/h (5 Bft)
28.11.2008 18:23 22,6 C 3,8 C 0,9 C 68 % 993 hPa 0,0 l/m 23,1 km/h (4 Bft)
28.11.2008 18:26 22,6 C 3,7 C 0,9 C 68 % 993 hPa 0,0 l/m 26,9 km/h (4 Bft)
28.11.2008 18:29 22,6 C 3,8 C 0,9 C 66 % 993 hPa 0,0 l/m 33,4 km/h (5 Bft)
28.11.2008 18:32 22,6 C 3,9 C 0,8 C 67 % 993 hPa 0,0 l/m 26,3 km/h (4 Bft)
28.11.2008 18:35 22,6 C 3,9 C 0,9 C 67 % 993 hPa 0,0 l/m 24,4 km/h (4 Bft)
28.11.2008 18:38 22,6 C 3,9 C 0,9 C 66 % 993 hPa 0,0 l/m 18,6 km/h (3 Bft)
28.11.2008 18:41 22,6 C 4,0 C 1,0 C 65 % 993 hPa 0,0 l/m 24,3 km/h (4 Bft)
28.11.2008 18:44 22,6 C 4,0 C 1,0 C 65 % 993 hPa 0,0 l/m 18,0 km/h (3 Bft)
28.11.2008 18:47 22,6 C 3,9 C 1,0 C 66 % 993 hPa 0,0 l/m 19,0 km/h (3 Bft)
28.11.2008 18:50 22,6 C 3,9 C 1,0 C 67 % 993 hPa 0,0 l/m 14,2 km/h (3 Bft)
28.11.2008 18:53 22,6 C 3,9 C 1,0 C 66 % 993 hPa 0,0 l/m 20,8 km/h (4 Bft)
28.11.2008 18:56 22,7 C 3,9 C 1,0 C 66 % 993 hPa 0,0 l/m 22,0 km/h (4 Bft)
28.11.2008 18:59 22,6 C 4,0 C 1,0 C 65 % 993 hPa 0,0 l/m 18,6 km/h (3 Bft)
28.11.2008 19:02 22,6 C 4,1 C 1,0 C 66 % 993 hPa 0,0 l/m 21,5 km/h (4 Bft)
28.11.2008 19:05 22,6 C 4,1 C 0,9 C 65 % 993 hPa 0,0 l/m 24,8 km/h (4 Bft)
28.11.2008 19:08 22,6 C 4,1 C 0,9 C 65 % 992 hPa 0,0 l/m 27,5 km/h (4 Bft)
28.11.2008 19:11 22,7 C 4,1 C 0,9 C 65 % 992 hPa 0,0 l/m 26,1 km/h (4 Bft)
28.11.2008 19:14 22,7 C 4,1 C 0,9 C 65 % 992 hPa 0,0 l/m 31,5 km/h (5 Bft)
28.11.2008 19:17 22,6 C 4,1 C 1,0 C 65 % 992 hPa 0,0 l/m 20,0 km/h (4 Bft)
28.11.2008 19:20 22,6 C 4,0 C 1,0 C 65 % 992 hPa 0,0 l/m 21,3 km/h (4 Bft)
28.11.2008 19:23 22,6 C 4,0 C 1,0 C 65 % 992 hPa 0,0 l/m 21,7 km/h (4 Bft)
28.11.2008 19:26 22,6 C 4,0 C 1,0 C 64 % 992 hPa 0,0 l/m 20,0 km/h (4 Bft)
28.11.2008 19:29 22,6 C 4,1 C 1,0 C 64 % 992 hPa 0,0 l/m 22,3 km/h (4 Bft)
28.11.2008 19:32 22,6 C 4,1 C 1,0 C 64 % 992 hPa 0,0 l/m 15,3 km/h (3 Bft)
28.11.2008 19:35 22,6 C 4,1 C 0,9 C 64 % 992 hPa 0,0 l/m 21,5 km/h (4 Bft)
28.11.2008 19:38 22,6 C 4,1 C 1,0 C 64 % 992 hPa 0,0 l/m 23,2 km/h (4 Bft)
28.11.2008 19:41 22,7 C 4,1 C 0,9 C 63 % 992 hPa 0,0 l/m 20,4 km/h (4 Bft)
28.11.2008 19:44 22,7 C 4,2 C 0,9 C 63 % 992 hPa 0,0 l/m 30,6 km/h (5 Bft)
28.11.2008 19:47 22,6 C 4,3 C 0,9 C 65 % 992 hPa 0,0 l/m 30,2 km/h (5 Bft)
28.11.2008 19:50 22,6 C 4,3 C 0,9 C 63 % 992 hPa 0,0 l/m 31,0 km/h (5 Bft)
28.11.2008 19:53 22,5 C 4,3 C 0,9 C 62 % 992 hPa 0,0 l/m 33,1 km/h (5 Bft)
28.11.2008 19:56 22,4 C 4,3 C 0,9 C 63 % 992 hPa 0,0 l/m 23,1 km/h (4 Bft)
28.11.2008 19:59 22,4 C 4,3 C 0,9 C 62 % 992 hPa 0,0 l/m 37,7 km/h (5 Bft)
28.11.2008 20:02 22,3 C 4,3 C 0,9 C 62 % 992 hPa 0,0 l/m 29,5 km/h (5 Bft)
28.11.2008 20:05 22,2 C 4,3 C 0,9 C 62 % 992 hPa 0,0 l/m 31,1 km/h (5 Bft)
28.11.2008 20:08 22,2 C 4,3 C 0,9 C 62 % 992 hPa 0,0 l/m 32,5 km/h (5 Bft)
28.11.2008 20:11 22,1 C 4,3 C 0,9 C 62 % 992 hPa 0,0 l/m 30,9 km/h (5 Bft)
28.11.2008 20:14 22,0 C 4,2 C 0,9 C 62 % 992 hPa 0,0 l/m 24,0 km/h (4 Bft)
28.11.2008 20:17 21,9 C 4,2 C 0,9 C 62 % 992 hPa 0,0 l/m 26,0 km/h (4 Bft)
28.11.2008 20:20 21,9 C 4,2 C 0,9 C 62 % 992 hPa 0,0 l/m 32,1 km/h (5 Bft)
28.11.2008 20:23 21,8 C 4,2 C 0,9 C 62 % 992 hPa 0,0 l/m 32,1 km/h (5 Bft)
28.11.2008 20:26 21,8 C 4,2 C 0,9 C 62 % 992 hPa 0,0 l/m 19,1 km/h (3 Bft)
28.11.2008 20:29 21,7 C 4,2 C 0,9 C 62 % 992 hPa 0,0 l/m 31,2 km/h (5 Bft)
28.11.2008 20:32 21,7 C 4,1 C 0,9 C 62 % 992 hPa 0,0 l/m 27,5 km/h (4 Bft)
28.11.2008 20:35 21,6 C 4,1 C 0,9 C 62 % 991 hPa 0,0 l/m 27,0 km/h (4 Bft)
28.11.2008 20:38 21,6 C 4,2 C 0,9 C 62 % 991 hPa 0,0 l/m 19,3 km/h (3 Bft)
28.11.2008 20:41 21,6 C 4,2 C 0,9 C 62 % 991 hPa 0,0 l/m 17,1 km/h (3 Bft)
28.11.2008 20:44 21,6 C 4,1 C 0,9 C 61 % 991 hPa 0,0 l/m 20,3 km/h (4 Bft)
28.11.2008 20:47 21,6 C 4,1 C 0,9 C 61 % 991 hPa 0,0 l/m 18,6 km/h (3 Bft)
28.11.2008 20:50 21,6 C 4,1 C 1,0 C 62 % 991 hPa 0,0 l/m 18,1 km/h (3 Bft)
28.11.2008 20:53 21,7 C 4,1 C 1,0 C 63 % 991 hPa 0,0 l/m 20,0 km/h (4 Bft)
28.11.2008 20:56 21,8 C 4,1 C 0,9 C 63 % 991 hPa 0,0 l/m 19,5 km/h (3 Bft)
28.11.2008 20:59 21,7 C 4,1 C 1,0 C 62 % 991 hPa 0,0 l/m 25,6 km/h (4 Bft)
28.11.2008 21:02 21,7 C 4,1 C 0,9 C 62 % 991 hPa 0,0 l/m 18,0 km/h (3 Bft)
28.11.2008 21:05 21,6 C 4,1 C 0,9 C 62 % 991 hPa 0,0 l/m 18,0 km/h (3 Bft)
28.11.2008 21:08 21,7 C 4,1 C 0,9 C 62 % 991 hPa 0,0 l/m 25,8 km/h (4 Bft)
28.11.2008 21:11 21,7 C 4,1 C 0,8 C 61 % 991 hPa 0,0 l/m 21,4 km/h (4 Bft)
28.11.2008 21:14 21,7 C 4,1 C 0,8 C 61 % 991 hPa 0,0 l/m 24,0 km/h (4 Bft)
28.11.2008 21:17 21,7 C 4,1 C 0,8 C 62 % 991 hPa 0,0 l/m 28,8 km/h (4 Bft)
28.11.2008 21:20 21,2 C 4,1 C 0,8 C 62 % 991 hPa 0,0 l/m 28,7 km/h (4 Bft)
28.11.2008 21:23 20,4 C 4,1 C 0,9 C 62 % 991 hPa 0,0 l/m 25,6 km/h (4 Bft)
28.11.2008 21:26 20,4 C 4,2 C 0,8 C 63 % 991 hPa 0,0 l/m 28,7 km/h (4 Bft)
28.11.2008 21:29 19,2 C 4,2 C 0,8 C 63 % 990 hPa 0,0 l/m 20,8 km/h (4 Bft)
28.11.2008 21:32 19,6 C 4,1 C 0,8 C 63 % 990 hPa 0,0 l/m 20,5 km/h (4 Bft)
28.11.2008 21:35 19,9 C 4,1 C 0,9 C 63 % 990 hPa 0,0 l/m 31,7 km/h (5 Bft)
28.11.2008 21:38 20,2 C 4,1 C 0,7 C 63 % 990 hPa 0,0 l/m 33,3 km/h (5 Bft)
28.11.2008 21:41 20,4 C 4,1 C 0,7 C 62 % 990 hPa 0,0 l/m 27,0 km/h (4 Bft)
28.11.2008 21:44 20,6 C 4,1 C 0,8 C 62 % 990 hPa 0,0 l/m 27,0 km/h (4 Bft)
28.11.2008 21:47 20,8 C 4,1 C 0,7 C 62 % 990 hPa 0,0 l/m 27,0 km/h (4 Bft)
28.11.2008 21:50 20,9 C 4,1 C 0,7 C 64 % 990 hPa 0,0 l/m 27,8 km/h (4 Bft)
28.11.2008 21:53 21,0 C 4,1 C 0,7 C 63 % 990 hPa 0,0 l/m 34,1 km/h (5 Bft)
28.11.2008 21:56 21,1 C 4,0 C 0,7 C 63 % 990 hPa 0,0 l/m 29,3 km/h (5 Bft)
28.11.2008 21:59 21,2 C 4,0 C 0,7 C 63 % 990 hPa 0,0 l/m 35,8 km/h (5 Bft)
28.11.2008 22:12 21,2 C 4,1 C 0,7 C 63 % 990 hPa 0,0 l/m 36,2 km/h (5 Bft)
28.11.2008 22:15 21,2 C 4,0 C 0,7 C 64 % 990 hPa 0,0 l/m 33,1 km/h (5 Bft)
28.11.2008 22:18 21,2 C 4,0 C 0,7 C 63 % 990 hPa 0,0 l/m 29,9 km/h (5 Bft)
28.11.2008 22:21 21,2 C 4,0 C 0,7 C 63 % 990 hPa 0,0 l/m 30,3 km/h (5 Bft)
28.11.2008 22:24 21,2 C 4,0 C 0,7 C 64 % 990 hPa 0,0 l/m 29,3 km/h (5 Bft)
28.11.2008 22:27 21,2 C 3,9 C 0,7 C 64 % 990 hPa 0,0 l/m 28,3 km/h (4 Bft)
28.11.2008 22:30 21,3 C 3,9 C 0,7 C 64 % 990 hPa 0,0 l/m 27,7 km/h (4 Bft)
28.11.2008 22:33 21,3 C 3,9 C 0,7 C 64 % 990 hPa 0,0 l/m 25,8 km/h (4 Bft)
28.11.2008 22:36 21,3 C 3,9 C 0,7 C 65 % 990 hPa 0,0 l/m 25,8 km/h (4 Bft)
28.11.2008 22:39 21,4 C 3,9 C 0,7 C 65 % 990 hPa 0,0 l/m 33,1 km/h (5 Bft)
28.11.2008 22:42 21,4 C 3,8 C 0,7 C 66 % 990 hPa 0,0 l/m 25,6 km/h (4 Bft)
28.11.2008 22:45 21,4 C 3,7 C 0,7 C 66 % 990 hPa 0,0 l/m 22,5 km/h (4 Bft)
28.11.2008 22:48 21,4 C 3,7 C 0,7 C 66 % 990 hPa 0,0 l/m 23,9 km/h (4 Bft)
28.11.2008 22:51 21,4 C 3,7 C 0,6 C 66 % 990 hPa 0,0 l/m 35,4 km/h (5 Bft)
28.11.2008 22:54 21,4 C 3,6 C 0,6 C 66 % 990 hPa 0,0 l/m 30,0 km/h (5 Bft)
28.11.2008 22:57 21,4 C 3,6 C 0,7 C 67 % 990 hPa 0,0 l/m 26,9 km/h (4 Bft)
28.11.2008 23:00 21,4 C 3,6 C 0,7 C 67 % 990 hPa 0,0 l/m 30,3 km/h (5 Bft)
28.11.2008 23:03 21,5 C 3,5 C 0,7 C 67 % 990 hPa 0,0 l/m 42,9 km/h (6 Bft)
28.11.2008 23:06 21,5 C 3,6 C 0,7 C 67 % 990 hPa 0,0 l/m 34,6 km/h (5 Bft)
28.11.2008 23:09 21,5 C 3,5 C 0,6 C 68 % 990 hPa 0,0 l/m 34,6 km/h (5 Bft)
28.11.2008 23:12 21,5 C 3,5 C 0,7 C 68 % 990 hPa 0,0 l/m 28,5 km/h (4 Bft)
28.11.2008 23:15 21,5 C 3,5 C 0,7 C 68 % 990 hPa 0,0 l/m 31,8 km/h (5 Bft)
28.11.2008 23:18 21,5 C 3,4 C 0,7 C 68 % 990 hPa 0,0 l/m 31,6 km/h (5 Bft)
28.11.2008 23:21 21,5 C 3,4 C 0,7 C 69 % 990 hPa 0,3 l/m 32,0 km/h (5 Bft)
28.11.2008 23:24 21,5 C 3,3 C 0,7 C 69 % 990 hPa 0,0 l/m 23,6 km/h (4 Bft)
28.11.2008 23:27 21,5 C 3,2 C 0,6 C 69 % 990 hPa 0,0 l/m 23,6 km/h (4 Bft)
28.11.2008 23:30 21,5 C 3,2 C 0,6 C 70 % 990 hPa 0,0 l/m 28,1 km/h (4 Bft)
28.11.2008 23:33 21,5 C 3,1 C 0,6 C 70 % 990 hPa 0,0 l/m 26,2 km/h (4 Bft)
28.11.2008 23:36 21,5 C 3,1 C 0,6 C 70 % 990 hPa 0,0 l/m 40,0 km/h (6 Bft)
28.11.2008 23:39 21,6 C 3,1 C 0,6 C 70 % 990 hPa 0,0 l/m 36,0 km/h (5 Bft)
28.11.2008 23:42 21,6 C 3,0 C 0,6 C 71 % 990 hPa 0,0 l/m 29,2 km/h (5 Bft)
28.11.2008 23:45 21,5 C 3,0 C 0,6 C 71 % 990 hPa 0,0 l/m 32,2 km/h (5 Bft)
28.11.2008 23:48 21,5 C 2,9 C 0,6 C 71 % 990 hPa 0,0 l/m 34,3 km/h (5 Bft)
28.11.2008 23:51 21,5 C 2,9 C 0,6 C 71 % 990 hPa 0,0 l/m 24,1 km/h (4 Bft)
28.11.2008 23:54 21,5 C 2,9 C 0,6 C 72 % 990 hPa 0,0 l/m 28,5 km/h (4 Bft)
28.11.2008 23:57 21,5 C 2,8 C 0,5 C 72 % 990 hPa 0,0 l/m 41,0 km/h (6 Bft)
_ Min-Zeit 05:08 04:26 23:57 20:44 21:29 - 00:02
Minimum _ 15,7 C -4,8 C 0,5 C 61 % 990 hPa - 0,0 km/h (0 Bft)
_ Max-Zeit 16:53 19:47 14:35 07:23 00:02 23:21 23:03
Maximum _ 22,8 C 4,3 C 1,5 C 93 % 1012 hPa 0,3 l/m 42,9 km/h
SW (6 Bft)
Durchschnitt _ 21,6 C -0,3 C 1,1 C 83 % 1001 hPa #0,3 l/m 8,4 km/h (2 Bft)